Change the Weather History Date:

Monday, March 17, 2014

  Actual Average Record
Temperature  
Mean Temperature 13 °F 29 °F  
Max Temperature 26 °F 40 °F 79 °F (2012)
Min Temperature 0 °F 19 °F -5 °F (1949)
Degree Days  
Heating Degree Days 52 36  
Month to date heating degree days 835 660  
Since 1 July heating degree days 7283 6532  
Cooling Degree Days 0 0  
Month to date cooling degree days 0 0  
Year to date cooling degree days 0 0  
Moisture  
Dew Point 1 °F    
Average Humidity 64    
Maximum Humidity 95    
Minimum Humidity 32    
Precipitation  
Precipitation 0.00 in 0.06 in 1.25 in (1934)
Month to date precipitation 0.25 0.93  
Year to date precipitation 3.05 3.65  
Snow  
Snow 0.00 in 0.30 in 8.10 in (1965)
Month to date snowfall 2.5 5.3  
Since 1 July snowfall 54.8 59.8  
Snow Depth 16.00 in    
Sea Level Pressure  
Sea Level Pressure 30.09 in    
Wind  
Wind Speed 7 mph (SE)    
Max Wind Speed 17 mph    
Max Gust Speed 23 mph    
Visibility 10 miles    
Events      
T = Trace of Precipitation, MM = Missing Value Source: NWS Daily Summary

Daily Weather History Graph

Daily Weather History Graph

Search for Another Location

Airport or City:

Trip Planner

Search our weather history database for the weather conditions in past years. The results will help you decide how hot, cold, wet, or windy it might be!

Date:

Astronomy

Mar. 17, 2014 Rise Set
Actual Time 7:47 AM EDT 7:47 PM EDT
Civil Twilight 7:18 AM EDT 8:16 PM EDT
Nautical Twilight 6:44 AM EDT 8:50 PM EDT
Astronomical Twilight 6:10 AM EDT 9:24 PM EDT
Moon 9:07 PM EDT (3/17) 7:59 AM EDT (3/17)
Length of Visible Light 12h 57m
Length of Day
12h 00m
Full, 99% of the Moon is Illuminated
Mar 17
Full
Mar 23
Last Quarter
Mar 30
New
Apr 7
First Quarter
Apr 15
Full

Hourly Weather History & Observations

Time (EDT) Temp. Windchill Dew Point Humidity Pressure Visibility Wind Dir Wind Speed Gust Speed Precip Events Conditions
12:53 AM 3.9 °F - 1.0 °F 88% 30.26 in 10.0 mi Calm Calm - N/A   Clear
1:53 AM 1.9 °F - -2.0 °F 83% 30.25 in 10.0 mi Calm Calm - N/A   Clear
2:53 AM -0.0 °F -9.9 °F -4.0 °F 83% 30.22 in 10.0 mi East 4.6 mph - N/A   Clear
3:53 AM 1.9 °F -5.6 °F -0.9 °F 88% 30.19 in 10.0 mi East 3.5 mph - N/A   Clear
4:53 AM 1.9 °F -5.6 °F -0.9 °F 88% 30.17 in 10.0 mi East 3.5 mph - N/A   Clear
5:53 AM 1.9 °F -5.6 °F -2.0 °F 83% 30.15 in 10.0 mi East 3.5 mph - N/A   Clear
6:53 AM 3.0 °F -4.4 °F -0.9 °F 84% 30.14 in 10.0 mi East 3.5 mph - N/A   Partly Cloudy
7:53 AM 1.0 °F -6.7 °F -2.9 °F 83% 30.14 in 10.0 mi ESE 3.5 mph - N/A   Clear
8:53 AM 3.9 °F -5.3 °F -0.0 °F 84% 30.14 in 10.0 mi East 4.6 mph - N/A   Clear
9:53 AM 10.9 °F -0.8 °F -0.0 °F 61% 30.13 in 10.0 mi SSE 8.1 mph - N/A   Clear
10:53 AM 15.1 °F 2.5 °F 1.0 °F 54% 30.12 in 10.0 mi SE 10.4 mph - N/A   Clear
11:53 AM 17.1 °F 3.6 °F 1.9 °F 52% 30.11 in 10.0 mi SSE 12.7 mph 17.3 mph N/A   Scattered Clouds
12:53 PM 19.0 °F 8.2 °F 1.9 °F 47% 30.08 in 10.0 mi SSE 9.2 mph - N/A   Clear
1:53 PM 21.9 °F 10.4 °F -0.0 °F 38% 30.04 in 10.0 mi SSE 11.5 mph 21.9 mph N/A   Clear
2:53 PM 24.1 °F 11.0 °F -2.9 °F 31% 30.01 in 10.0 mi South 16.1 mph 23.0 mph N/A   Clear
3:53 PM 25.0 °F 17.1 °F -2.9 °F 30% 29.99 in 10.0 mi SE 6.9 mph 17.3 mph N/A   Clear
4:53 PM 26.1 °F 17.6 °F 1.0 °F 34% 29.97 in 10.0 mi SSE 8.1 mph - N/A   Overcast
5:53 PM 26.1 °F 16.8 °F 1.9 °F 35% 29.96 in 10.0 mi SSE 9.2 mph - N/A   Mostly Cloudy
6:53 PM 25.0 °F 15.5 °F 3.0 °F 39% 29.98 in 10.0 mi SE 9.2 mph - N/A   Overcast
7:53 PM 23.0 °F 13.1 °F 5.0 °F 46% 29.99 in 10.0 mi SE 9.2 mph - N/A   Overcast
8:53 PM 21.9 °F 12.5 °F 3.9 °F 46% 29.98 in 10.0 mi SE 8.1 mph - N/A   Overcast
9:53 PM 21.0 °F 13.4 °F 6.1 °F 53% 29.99 in 10.0 mi SE 5.8 mph - N/A   Overcast
10:53 PM 19.9 °F 7.3 °F 7.0 °F 57% 29.97 in 10.0 mi ESE 12.7 mph - N/A   Overcast
11:53 PM 19.9 °F 13.4 °F 8.1 °F 60% 29.99 in 10.0 mi ESE 4.6 mph - N/A   Overcast